Location: Evergreen Manor
(41.4083°N, 81.4939°W)
Time: 07:01:53
(UTC+00:00)

Cosmos 2237 Rocket - Pass Details

Date: 11 December 2019
Orbit: 836 x 849 km, 71.0° (Epoch: 27 January)

Event Time Altitude Azimuth Distance (km) Brightness Sun altitude
Rises 00:18:42 0° 248° (WSW) 3,405 6.6 -25.9°
Reaches altitude 10° 00:21:54 10° 266° (W) 2,473 5.6 -26.5°
Maximum altitude 00:25:49 19° 310° (NW) 1,926 4.5 -27.2°
Drops below altitude 10° 00:29:46 10° 354° (N) 2,478 4.6 -27.9°
Enters shadow 00:30:20 - 358° (N) 2,623 4.7 -28.0°
